{"data":{"norad_id":48774,"epoch":"2026-05-25T00:28:08.547168Z","epoch_age_seconds":73252,"freshness":"FRESH","line1":"1 48774U 21045H   26145.01954337  .00000098  00000+0  22626-3 0  9999","line2":"2 48774  87.8991 263.8355 0001851  83.5020 276.6321 13.15547389241313","mean_motion":13.15547389,"eccentricity":0.0001851,"inclination_deg":87.8991,"raan_deg":263.8355,"arg_perigee_deg":83.502,"mean_anomaly_deg":276.6321,"bstar":0.00022626,"rev_number":24131,"period_min":109.46013895361,"perigee_km":1200.3721853331,"apogee_km":1203.1782688396,"semimajor_km":7579.9122270863,"source":"CELESTRAK","updated_at":"2026-05-25T13:38:22.442676Z"}}